Airfield :
LOGIN :

Register | Disclaimer

   EN    FR    IT 

 










Legend :    VFR   Marginal VFR   IFR   Intensive IFR   Very Intensive IFR
Visi :
Ceiling :
>= 8 km
>= 3000ft
5 to 8 km
1000 to 3000 ft
1500m to 5 km
500 to 1000 ft
800 to 1500m
200 to 500 ft
< 800m
< 200 ft
Symbols :   Thunderstorms  Fog  Heavy snow  Heavy precipitations  Wind > 20 kt
SIGMETs :     Misc.  Thunderstorms  Icing  Turbulence  Mountain Waves  Volcanic Ashes







- Airport Elevation : 1947 ft
- IATA code : OBF


EDMO - Oberpfaffenhofen

CURRENT METAR :
  • 262350Z AUTO 26003KT 9999 // OVC059/// 03/M01 Q1029

EXPIRED METARs :
  • 262320Z AUTO 26003KT 9999 // FEW045/// OVC065/// 03/M02 Q1029
  • 262250Z AUTO 29003KT 260V320 9999 // FEW041/// OVC067/// 03/M02 Q1029
  • 262220Z AUTO 28003KT 9999 // FEW055/// OVC072/// 03/M02 Q1029
  • 262150Z AUTO 31004KT 9999 // BKN038/// OVC077/// 04/M02 Q1029
  • 262120Z AUTO 29005KT 9999 // SCT038/// OVC081/// 04/M02 Q1029

TAF TAF EDMO
Valid from the 26 at 18:00 until the 27 at 03:00 UTC


261700Z 2618/2703 25005KT 9999 SCT045
No reported NOTAMs for that airfield.



MET'MAP, your aeronautical weather chart ! - Copyright ORBIFLY December 2007 - Disclaimer

ORBIFLY MET'MAP TEAM :

Programming & Development : Alexandra Zaïnal
Concept & Development : Baudouin d'Aumeries
Co-Development & Prog : Marc-Olivier Méhu
Technical & hardware support : Manuel Goepfert

Contact : metmap@orbifly.com




SOURCES & CREDITS :

   NOAA